Location: Casaglia
(44.0333°N, 11.5167°E)
Time: 22:29:40
(UTC+00:00)

Envisat - Pass Details

Date: 03 August 2021
Orbit: 764 x 766 km, 98.2° (Epoch: 17 September)

Event Time Altitude Azimuth Distance (km) Brightness Sun altitude
Rises 03:29:28 0° 27° (NNE) 3,242 7.4 -6.3°
Reaches altitude 10° 03:32:19 10° 42° (NE) 2,310 7.0 -5.9°
Maximum altitude 03:36:11 22° 92° (E) 1,645 5.6 -5.3°
Drops below altitude 10° 03:40:02 10° 142° (SE) 2,296 5.6 -4.7°
Sets 03:42:50 0° 158° (SSE) 3,216 6.2 -4.3°
